This is the latest recevied weather packets stored in our database for station/object KB3VSP. If no packets are shown the sender has not sent any weather packets the latest 10 day(s).
| Time | Temp. | Humidity | Pressure | Rain* | Wind** | Luminosity | Snow |
|---|---|---|---|---|---|---|---|
| 1778002239 | 20.56° C | 56% | 1008.9 hPa | 0 mm | - | 131 W/m² | - |
| 1778001937 | 21.11° C | 57% | 1008.9 hPa | 0 mm | - | 123 W/m² | - |
| 1778001633 | 21.11° C | 57% | 1008.6 hPa | 0 mm | - | 111 W/m² | - |
| 1778001328 | 21.67° C | 57% | 1008.4 hPa | 0 mm | - | 70 W/m² | - |
| 1778001025 | 21.67° C | 55% | 1008.3 hPa | 0 mm | - | 121 W/m² | - |
| 1778000723 | 21.67° C | 56% | 1008.2 hPa | 0 mm | - | 161 W/m² | - |
| 1778000419 | 21.67° C | 55% | 1008 hPa | 0 mm | - | 142 W/m² | - |
| 1778000114 | 21.67° C | 55% | 1008.1 hPa | 0 mm | - | 221 W/m² | - |
| 1777999810 | 21.67° C | 55% | 1008.2 hPa | 0 mm | - | 248 W/m² | - |
| 1777999506 | 21.67° C | 56% | 1008.1 hPa | 0 mm | - | 186 W/m² | - |
| 1777999204 | 21.67° C | 56% | 1008.2 hPa | 0 mm | - | 167 W/m² | - |
| 1777998897 | 22.22° C | 56% | 1008.3 hPa | 0 mm | - | 195 W/m² | - |
| 1777998596 | 22.22° C | 55% | 1008.3 hPa | 0 mm | - | 157 W/m² | - |
| 1777998291 | 21.67° C | 58% | 1008.3 hPa | 0 mm | - | 728 W/m² | - |
| 1777997988 | 21.67° C | 57% | 1008.4 hPa | 0 mm | - | 161 W/m² | - |
| 1777997679 | 21.67° C | 58% | 1008.3 hPa | 0 mm | - | 664 W/m² | - |
| 1777997377 | 21.11° C | 59% | 1008.7 hPa | 0 mm | - | 170 W/m² | - |
| 1777997075 | 21.11° C | 59% | 1008.9 hPa | 0 mm | - | 103 W/m² | - |
| 1777996771 | 21.11° C | 59% | 1008.8 hPa | 0 mm | - | 147 W/m² | - |
| 1777996467 | 20.56° C | 60% | 1008.8 hPa | 0 mm | - | 139 W/m² | - |
| 1777996163 | 20.56° C | 60% | 1008.8 hPa | 0 mm | - | 131 W/m² | - |
| 1777995855 | 20.56° C | 61% | 1008.8 hPa | 0 mm | - | 108 W/m² | - |
| 1777995551 | 20.56° C | 61% | 1008.7 hPa | 0 mm | - | 163 W/m² | - |
| 1777995248 | 20° C | 62% | 1008.9 hPa | 0 mm | - | 135 W/m² | - |
| 1777994945 | 20° C | 62% | 1008.9 hPa | 0 mm | - | 110 W/m² | - |
* Rain latest hour (hover to see other rain measurements)
** Current wind speed in m/s (hover to see current wind gust speed)